This is the latest recevied weather packets stored in our database for station/object KE8URB. If no packets are shown the sender has not sent any weather packets the latest 10 day(s).
| Time | Temp. | Humidity | Pressure | Rain* | Wind** | Luminosity | Snow |
|---|---|---|---|---|---|---|---|
| 1787498662 | 19.44° C | 79% | 1015.7 hPa | 0 mm | - | 59 W/m² | - |
| 1787498358 | 19.44° C | 80% | 1015.5 hPa | 0 mm | - | 61 W/m² | - |
| 1787498054 | 19.44° C | 80% | 1015.6 hPa | 0 mm | - | 85 W/m² | - |
| 1787497749 | 19.44° C | 81% | 1015.7 hPa | 0 mm | - | 69 W/m² | - |
| 1787497445 | 19.44° C | 82% | 1015.5 hPa | 0 mm | - | 75 W/m² | - |
| 1787497144 | 18.89° C | 84% | 1015.4 hPa | 0 mm | - | 69 W/m² | - |
| 1787496838 | 18.89° C | 85% | 1015.5 hPa | 0 mm | - | 61 W/m² | - |
| 1787496535 | 18.89° C | 86% | 1015.6 hPa | 0 mm | - | 81 W/m² | - |
| 1787496234 | 18.33° C | 86% | 1015.4 hPa | 0 mm | - | 57 W/m² | - |
| 1787495933 | 18.33° C | 87% | 1015.5 hPa | 0 mm | - | 88 W/m² | - |
| 1787495629 | 18.33° C | 88% | 1015.4 hPa | 0 mm | - | 67 W/m² | - |
| 1787495325 | 17.78° C | 89% | 1015.4 hPa | 0 mm | - | 80 W/m² | - |
| 1787495021 | 18.33° C | 89% | 1015.5 hPa | 0 mm | - | 53 W/m² | - |
| 1787494721 | 17.78° C | 88% | 1015.3 hPa | 0 mm | - | 52 W/m² | - |
| 1787494416 | 17.78° C | 88% | 1015.2 hPa | 0 mm | - | 62 W/m² | - |
| 1787494112 | 17.78° C | 90% | 1015.2 hPa | 0 mm | - | 48 W/m² | - |
| 1787493808 | 17.78° C | 90% | 1015.3 hPa | 0 mm | - | 61 W/m² | - |
| 1787493507 | 17.78° C | 90% | 1015.1 hPa | 0 mm | - | 72 W/m² | - |
| 1787493203 | 17.22° C | 91% | 1015.1 hPa | 0 mm | - | 66 W/m² | - |
| 1787492899 | 17.22° C | 92% | 1015 hPa | 0 mm | - | 69 W/m² | - |
| 1787492594 | 17.22° C | 92% | 1014.9 hPa | 0 mm | - | 95 W/m² | - |
| 1787492290 | 17.22° C | 92% | 1014.9 hPa | 0 mm | - | 51 W/m² | - |
| 1787491986 | 17.22° C | 92% | 1014.7 hPa | 0 mm | - | 90 W/m² | - |
| 1787491681 | 17.22° C | 94% | 1014.9 hPa | 0 mm | - | 299 W/m² | - |
| 1787491381 | 17.22° C | 94% | 1014.9 hPa | 0 mm | - | 72 W/m² | - |
* Rain latest hour (hover to see other rain measurements)
** Current wind speed in m/s (hover to see current wind gust speed)